STARLINK-2048

decayed
NORAD ID: 48092 Int'l Des: 2021-027 Owner: SPXS Country: US Constellation: starlink
LEOCIRCULAR
Gruppe

Über STARLINK-2048

Beschreibung wird geladen...

Höhenverlauf

Altitude vs Time

uPlot chart will show altitude changes over time

Zweizeiliger Elementsatz

1 48092U 21027A 25036.50575435 .14274619 12367-4 79294-3 0 9996
2 48092 53.0249 41.8428 0003264 188.4210 260.9113 16.42156799213721
Epoch: 5. Feb. 2025 • Age: 5182 hours

Aktueller Status

Position data unavailable
Startdatum 7. Apr. 2021
Alter 4.4 years
Verglühungsdatum 5. Feb. 2025
Typ internet

Technische Details

Klassifizierung Payload
Masse 260.00 kg
Trockenmasse 248.00 kg
Gesamtmasse 260.00 kg
Länge 0.20 m
Durchmesser 2.80 m
Spannweite 9.00 m
Form Box + pan
Hersteller SPXS
Bus-Typ Starlink
Phasenstatus Unknown Transfer Status
Besitzer/Staat SPXS/US

Große Konstellationen

Loading constellations...